Simultaneous Nadir Overpasses (SNOs) Predictions

Prediction of SNOs between AQUA and METOP-C Satellite Orbit:

Table of predicted SNOs for the next 14.0 days since TLE Epoch: 7/4/2020
Index Date (AQUA) Time (AQUA) Lat,Lon (AQUA) SZA (AQUA ) Date (METOP-C) Time (METOP-C) Lat,Lon (METOP-C) SZA (METOP-C ) Distance(km) Time Diff (sec)
1 07/04/2020 22:06:13 73.13,-155.88 50.37 07/04/2020 22:05:06 73.07,-158.41 50.42 81.98 67
2 07/04/2020 22:55:51 -73.77, 10.43 128.95 07/04/2020 22:55:34 -73.77, 10.50 128.95 2.31 17
3 07/04/2020 23:45:19 73.81, 177.97 51.10 07/04/2020 23:46:13 73.80, 177.91 51.08 2.48 54
4 07/07/2020 17:40:33 73.40, -89.98 50.94 07/07/2020 17:39:23 73.33, -91.42 50.96 46.33 70
5 07/07/2020 18:30:06 -73.77, 76.87 128.66 07/07/2020 18:29:56 -73.78, 76.93 128.64 2.45 10
6 07/07/2020 19:19:34 73.81,-115.59 51.40 07/07/2020 19:20:35 73.81,-115.65 51.39 2.10 61
7 07/10/2020 13:14:52 73.66, -24.10 51.57 07/10/2020 13:13:39 73.60, -24.41 51.54 12.04 73
8 07/10/2020 14:04:20 -73.77, 143.31 128.31 07/10/2020 14:04:17 -73.79, 143.36 128.29 3.03 3
9 07/10/2020 14:53:48 73.81, -49.15 51.75 07/10/2020 14:54:56 73.82, -49.22 51.75 2.63 68
10 07/13/2020 08:49:08 73.71, 42.22 52.03 07/13/2020 08:47:59 73.71, 42.25 52.04 1.17 69
11 07/13/2020 09:38:35 -73.77,-150.26 127.91 07/13/2020 09:38:40 -73.75,-150.33 127.92 3.29 5
12 07/13/2020 10:28:04 73.87, 17.17 52.21 07/13/2020 10:29:17 73.88, 17.33 52.21 5.62 73
13 07/16/2020 04:23:23 73.72, 108.65 52.49 07/16/2020 04:22:21 73.72, 108.68 52.49 1.12 62
14 07/16/2020 05:12:50 -73.78, -83.84 127.45 07/16/2020 05:13:01 -73.80, -83.79 127.43 3.23 11
